This demonstration page uses our WeatherBlox Daily Observations layout. Learn more.

Left ArrowRight Arrow

39.51506, -84.39828

Hourly Observations for February 19, 2019

Temp ( °F °C ) Dew Point ( °F °C ) Humidity (%) Winds ( mph kmh ) Pressure ( in mb ) Visibility ( mi km ) Precip ( " mm )
12:15 am 00:15 Clear 22 -5.4 20 -6.6 91 91 Calm 30.58 1036 10 16 0.00 0.00
12:35 am 00:35 Clear 21 -6 19 -7.2 91 91 Calm 30.59 1036 10 16 0.00 0.00
12:55 am 00:55 Clear 21 -6 19 -7 93 93 Calm 30.60 1036 7 11 0.00 0.00
1:15 am 01:15 Clear with Mist and Fog 21 -6.1 20 -6.8 95 95 Calm 30.60 1036 7 11 0.00 0.00
1:35 am 01:35 Clear with Mist and Fog 21 -6.3 20 -6.9 96 96 Calm 30.61 1037 7 11 0.00 0.00
1:55 am 01:55 Clear 20 -6.6 18 -7.6 93 93 Calm 30.61 1037 7 11 0.00 0.00
2:15 am 02:15 Clear 19 -7.1 17 -8.1 93 93 Calm 30.62 1037 10 16 0.00 0.00
2:35 am 02:35 Clear 19 -7 18 -8 93 93 Calm 30.62 1037 10 16 0.00 0.00
2:55 am 02:55 Clear 19 -7.2 17 -8.2 93 93 Calm 30.63 1037 7 11 0.00 0.00
3:15 am 03:15 Clear 19 -7.3 17 -8.5 91 91 Calm 30.63 1037 10 16 0.00 0.00
3:35 am 03:35 Clear 19 -7.5 16 -8.7 91 91 Calm 30.63 1037 10 16 0.00 0.00
3:55 am 03:55 Clear 19 -7.4 17 -8.6 91 91 Calm 30.64 1037 10 16 0.00 0.00
4:15 am 04:15 Clear 18 -7.6 17 -8.6 93 93 Calm 30.65 1038 7 11 0.00 0.00
4:35 am 04:35 Clear 18 -7.6 17 -8.5 93 93 Calm 30.65 1038 7 11 0.00 0.00
4:55 am 04:55 Clear 18 -7.7 16 -8.8 92 92 Calm 30.66 1038 10 16 0.00 0.00
5:15 am 05:15 Clear 18 -7.7 16 -8.8 92 92 Calm 30.67 1039 10 16 0.00 0.00
5:35 am 05:35 Clear 18 -7.7 16 -8.7 93 93 Calm 30.68 1039 7 11 0.00 0.00
5:55 am 05:55 Clear 18 -8 16 -9 93 93 Calm 30.67 1039 7 11 0.00 0.00
6:15 am 06:15 Clear 17 -8.1 15 -9.3 91 91 Calm 30.68 1039 10 16 0.00 0.00
6:35 am 06:35 Clear 18 -8 15 -9.2 91 91 Calm 30.68 1039 10 16 0.00 0.00
6:55 am 06:55 Clear 18 -8 15 -9.2 91 91 Calm 30.69 1039 10 16 0.00 0.00
7:15 am 07:15 Clear with Mist and Fog 17 -8.5 15 -9.5 93 93 Calm 30.70 1040 7 11 0.00 0.00
7:35 am 07:35 Sunny 17 -8.4 15 -9.5 92 92 Calm 30.70 1040 7 11 0.00 0.00
7:55 am 07:55 Sunny 17 -8.1 15 -9.3 91 91 Calm 30.70 1040 7 11 0.00 0.00
8:15 am 08:15 Sunny with Mist and Fog 19 -7.1 17 -8.1 93 93 Calm 30.71 1040 7 11 0.00 0.00
8:35 am 08:35 Sunny with Mist and Fog 20 -6.6 18 -7.7 92 92 Calm 30.70 1040 7 11 0.00 0.00
8:55 am 08:55 Sunny with Mist and Fog 22 -5.8 20 -6.9 92 92 Calm 30.71 1040 5 8 0.00 0.00
9:15 am 09:15 Sunny with Mist and Fog 23 -5 21 -6.3 91 91 Calm 30.72 1040 7 11 0.00 0.00
9:35 am 09:35 Sunny 24 -4.5 21 -6.1 89 89 NNE 3 6 30.73 1041 10 16 0.00 0.00
9:55 am 09:55 Sunny 25 -3.7 22 -5.7 86 86 Calm 30.73 1041 10 16 0.00 0.00
10:15 am 10:15 Sunny 27 -2.8 22 -5.4 83 83 NNE 3 6 30.71 1040 10 16 0.00 0.00
10:35 am 10:35 Sunny 28 -2.3 22 -5.6 78 78 NE 3 6 30.71 1040 10 16 0.00 0.00
10:55 am 10:55 Sunny 29 -1.5 22 -5.5 74 74 NE 3 6 30.70 1040 10 16 0.00 0.00
11:15 am 11:15 Sunny 30 -1.3 21 -6 71 71 NE 6 9 30.69 1039 10 16 0.00 0.00
11:35 am 11:35 Partly Cloudy 31 -0.4 20 -6.6 63 63 ENE 6 9 30.69 1039 10 16 0.00 0.00
11:55 am 11:55 Partly Cloudy 31 -0.4 20 -6.9 62 62 E 7 11 30.69 1039 10 16 0.00 0.00
12:15 pm 12:15 Partly Cloudy 32 0.1 19 -7.1 59 59 SE 7 11 30.68 1039 10 16 0.00 0.00
12:35 pm 12:35 Sunny 33 0.7 19 -7.2 56 56 E 3 6 30.64 1038 10 16 0.00 0.00
12:55 pm 12:55 Sunny 34 0.9 20 -6.9 56 56 E 5 7 30.63 1037 10 16 0.00 0.00
1:15 pm 13:15 Sunny 34 1.1 20 -6.6 57 57 NE 7 11 30.61 1037 10 16 0.00 0.00
1:35 pm 13:35 Sunny 35 1.8 20 -6.8 53 53 E 6 9 30.60 1036 10 16 0.00 0.00
1:55 pm 13:55 Sunny 35 1.5 19 -7.3 52 52 ESE 6 9 30.60 1036 10 16 0.00 0.00
2:15 pm 14:15 Sunny 35 1.4 20 -6.8 55 55 NE 9 15 30.57 1035 10 16 0.00 0.00
2:35 pm 14:35 Sunny 35 1.5 20 -6.8 54 54 ENE 8 13 30.56 1035 10 16 0.00 0.00
2:55 pm 14:55 Sunny 35 1.4 20 -6.7 55 55 E 8 13 30.57 1035 10 16 0.00 0.00
3:15 pm 15:15 Sunny 35 1.5 21 -6.3 57 57 ENE 10 17 30.56 1035 10 16 0.00 0.00
3:35 pm 15:35 Sunny 35 1.6 22 -5.8 58 58 ENE 10 17 30.55 1035 10 16 0.00 0.00
3:55 pm 15:55 Sunny 34 1.3 22 -5.7 60 60 ENE 10 17 30.54 1034 10 16 0.00 0.00
4:15 pm 16:15 Sunny 34 1.1 22 -5.6 61 61 ENE 8 13 30.55 1035 10 16 0.00 0.00
4:35 pm 16:35 Sunny 34 1 23 -5.2 64 64 E 8 13 30.55 1035 10 16 0.00 0.00
4:55 pm 16:55 Sunny 33 0.7 23 -5.2 65 65 ENE 10 17 30.54 1034 10 16 0.00 0.00
5:15 pm 17:15 Sunny 33 0.6 23 -5 66 66 ENE 10 17 30.54 1034 10 16 0.00 0.00
5:35 pm 17:35 Sunny 33 0.5 23 -5 67 67 E 7 11 30.54 1034 10 16 0.00 0.00
5:55 pm 17:55 Sunny 33 0.4 22 -5.3 66 66 E 9 15 30.53 1034 10 16 0.00 0.00
6:15 pm 18:15 Sunny 32 0.2 23 -5.2 67 67 ENE 10 17 30.53 1034 10 16 0.00 0.00
6:35 pm 18:35 Clear 32 0 23 -5 69 69 ENE 8 13 30.53 1034 10 16 0.00 0.00
7:15 pm 19:15 Clear 32 -0.2 24 -4.6 73 73 NE 10 17 30.51 1033 10 16 0.00 0.00
7:35 pm 19:35 Clear 32 -0.2 24 -4.5 73 73 NE 8 13 30.51 1033 10 16 0.00 0.00
7:55 pm 19:55 Clear 32 -0.2 24 -4.5 73 73 NE 8 13 30.50 1033 10 16 0.00 0.00
8:15 pm 20:15 Clear 32 -0.2 24 -4.5 73 73 ENE 7 11 30.50 1033 10 16 0.00 0.00
8:35 pm 20:35 Clear 32 -0.1 24 -4.6 72 72 ENE 7 11 30.49 1032 10 16 0.00 0.00
8:55 pm 20:55 Clear 32 -0.2 24 -4.4 74 74 ENE 8 13 30.47 1032 10 16 0.00 0.00
9:15 pm 21:15 Clear 32 -0.2 24 -4.3 74 74 ENE 8 13 30.47 1032 10 16 0.00 0.00
9:35 pm 21:35 Clear 32 -0.1 24 -4.4 73 73 ENE 9 15 30.45 1031 10 16 0.00 0.00
9:55 pm 21:55 Partly Cloudy 32 0 24 -4.5 72 72 NE 8 13 30.44 1031 10 16 0.00 0.00
10:15 pm 22:15 Cloudy 32 0.2 24 -4.5 71 71 NE 9 15 30.44 1031 10 16 0.00 0.00
10:35 pm 22:35 Cloudy 32 0.2 24 -4.6 70 70 ENE 7 11 30.43 1030 10 16 0.00 0.00
10:55 pm 22:55 Cloudy 33 0.3 24 -4.7 69 69 ENE 9 15 30.41 1030 10 16 0.00 0.00
11:15 pm 23:15 Cloudy 33 0.4 23 -5 67 67 ENE 8 13 30.40 1030 10 16 0.00 0.00
11:35 pm 23:35 Cloudy 33 0.5 23 -5.1 66 66 E 8 13 30.39 1029 10 16 0.00 0.00
11:55 pm 23:55 Cloudy 33 0.6 23 -5.1 66 66 E 3 6 30.41 1030 10 16 0.00 0.00

Powered by AerisWeather